When you browse on this site, cookies collect data to enhance your experience and personalize the content and advertising you see.
Visit our Privacy Policy to learn more. By continuing to use the site, you agree to this use of cookies and data.
  • In Hungary
  • List of Countries
  • For 7 days
  • Water Temperature
  • Weather Map
  • News
  • Weather Widgets
  • user-avatar
    Login

    Hourly Weather Jaypur

    Today, 12 November, Tuesday

    Time Temperature Precipitation Wind Pressure Humidity
    00:00 +19°C° 0 mm 1 mps 692 mmHg 82%
    01:00 +19°C° 0 mm 1 mps 691 mmHg 83%
    02:00 +19°C° 0 mm 1 mps 691 mmHg 83%
    03:00 +18°C° 0 mm 1 mps 691 mmHg 84%
    04:00 +18°C° 0 mm 1 mps 691 mmHg 84%
    05:00 +18°C° 0 mm 1 mps 691 mmHg 85%
    06:00 +18°C° 0 mm 1 mps 691 mmHg 90%
    07:00 +20°C° 0 mm 1 mps 692 mmHg 84%
    08:00 +21°C° 0 mm 1 mps 693 mmHg 77%
    09:00 +23°C° 0 mm 2 mps 694 mmHg 70%
    10:00 +24°C° 0 mm 2 mps 694 mmHg 65%
    11:00 +26°C° 0 mm 2 mps 694 mmHg 59%
    12:00 +27°C° 0 mm 2 mps 694 mmHg 54%
    13:00 +27°C° 0 mm 2 mps 693 mmHg 54%
    14:00 +27°C° 0 mm 2 mps 693 mmHg 55%
    15:00 +27°C° 0 mm 3 mps 692 mmHg 55%
    16:00 +25°C° 0 mm 3 mps 692 mmHg 62%
    17:00 +24°C° 0 mm 2 mps 692 mmHg 69%
    18:00 +21°C° 0 mm 2 mps 691 mmHg 76%
    19:00 +20°C° 0 mm 2 mps 692 mmHg 77%
    20:00 +19°C° 0 mm 2 mps 692 mmHg 78%
    21:00 +19°C° 0 mm 2 mps 693 mmHg 79%
    22:00 +19°C° 0 mm 1 mps 693 mmHg 80%
    23:00 +19°C° 0 mm 1 mps 693 mmHg 82%

    Tomorrow, 13 November, Wednesday

    Time Temperature Precipitation Wind Pressure Humidity
    00:00 +19°C° 0 mm 1 mps 693 mmHg 83%
    01:00 +18°C° 0 mm 1 mps 692 mmHg 84%
    02:00 +18°C° 0 mm 1 mps 692 mmHg 86%
    03:00 +18°C° 0 mm 1 mps 691 mmHg 87%
    04:00 +16°C° 0 mm 1 mps 692 mmHg 87%
    05:00 +16°C° 0 mm 1 mps 692 mmHg 88%
    06:00 +16°C° 0 mm 1 mps 692 mmHg 88%
    07:00 +18°C° 0 mm 2 mps 693 mmHg 82%
    08:00 +20°C° 0 mm 2 mps 694 mmHg 76%
    09:00 +23°C° 0 mm 2 mps 694 mmHg 70%
    10:00 +24°C° 0 mm 2 mps 694 mmHg 64%
    11:00 +25°C° 0 mm 2 mps 694 mmHg 58%
    12:00 +27°C° 0 mm 2 mps 694 mmHg 51%
    13:00 +27°C° 0 mm 2 mps 694 mmHg 51%
    14:00 +27°C° 0 mm 2 mps 693 mmHg 51%
    15:00 +27°C° 0 mm 2 mps 693 mmHg 51%
    16:00 +25°C° 0 mm 2 mps 693 mmHg 60%
    17:00 +24°C° 0 mm 3 mps 692 mmHg 68%
    18:00 +21°C° 0 mm 3 mps 692 mmHg 77%
    19:00 +20°C° 0 mm 2 mps 693 mmHg 79%
    20:00 +19°C° 0 mm 2 mps 693 mmHg 82%
    21:00 +18°C° 0 mm 2 mps 693 mmHg 84%
    22:00 +18°C° 0 mm 2 mps 693 mmHg 85%
    23:00 +18°C° 0 mm 2 mps 693 mmHg 87%

    Day after tomorrow, 14 November, Thursday

    Time Temperature Precipitation Wind Pressure Humidity
    00:00 +17°C° 0 mm 2 mps 693 mmHg 88%
    01:00 +18°C° 0 mm 1 mps 692 mmHg 90%
    02:00 +18°C° 0 mm 1 mps 692 mmHg 91%
    03:00 +16°C° 0 mm 1 mps 692 mmHg 92%
    04:00 +16°C° 0 mm 1 mps 692 mmHg 92%
    05:00 +16°C° 0 mm 2 mps 692 mmHg 93%
    06:00 +16°C° 0 mm 2 mps 692 mmHg 93%
    07:00 +17°C° 0 mm 2 mps 693 mmHg 85%
    08:00 +20°C° 0 mm 1 mps 694 mmHg 78%
    09:00 +22°C° 0 mm 1 mps 694 mmHg 71%
    10:00 +24°C° 0 mm 1 mps 694 mmHg 63%
    11:00 +25°C° 0 mm 1 mps 695 mmHg 54%
    12:00 +27°C° 0 mm 1 mps 695 mmHg 46%
    13:00 +27°C° 0 mm 1 mps 694 mmHg 45%
    14:00 +28°C° 0 mm 1 mps 693 mmHg 44%
    15:00 +28°C° 0 mm 1 mps 693 mmHg 43%
    16:00 +26°C° 0 mm 1 mps 693 mmHg 53%
    17:00 +24°C° 0 mm 1 mps 692 mmHg 64%
    18:00 +22°C° 0 mm 1 mps 692 mmHg 74%
    19:00 +21°C° 0 mm 1 mps 692 mmHg 76%
    20:00 +20°C° 0 mm 1 mps 693 mmHg 79%
    21:00 +19°C° 0 mm 1 mps 693 mmHg 81%
    22:00 +19°C° 0 mm 1 mps 693 mmHg 81%
    23:00 +19°C° 0 mm 1 mps 693 mmHg 80%

    15 November, Friday

    Time Temperature Precipitation Wind Pressure Humidity
    00:00 +19°C° 0 mm 1 mps 692 mmHg 80%
    01:00 +18°C° 0 mm 1 mps 692 mmHg 80%
    02:00 +18°C° 0 mm 1 mps 692 mmHg 80%
    03:00 +18°C° 0 mm 1 mps 691 mmHg 80%
    04:00 +18°C° 0 mm 1 mps 691 mmHg 80%
    05:00 +16°C° 0 mm 1 mps 691 mmHg 79%
    06:00 +16°C° 0 mm 1 mps 691 mmHg 79%
    07:00 +19°C° 0 mm 1 mps 692 mmHg 73%
    08:00 +21°C° 0 mm 1 mps 693 mmHg 67%
    09:00 +21°C° 0 mm 0 mps 694 mmHg 61%
    10:00 +23°C° 0 mm 0 mps 694 mmHg 55%
    11:00 +27°C° 0 mm 1 mps 694 mmHg 50%
    12:00 +29°C° 0 mm 1 mps 694 mmHg 44%
    13:00 +29°C° 0 mm 1 mps 693 mmHg 45%
    14:00 +29°C° 0 mm 1 mps 692 mmHg 46%
    15:00 +29°C° 0 mm 2 mps 692 mmHg 47%
    16:00 +27°C° 0 mm 2 mps 692 mmHg 56%
    17:00 +25°C° 0 mm 1 mps 692 mmHg 66%
    18:00 +23°C° 0 mm 1 mps 691 mmHg 75%
    19:00 +22°C° 0 mm 1 mps 692 mmHg 77%
    20:00 +21°C° 0 mm 1 mps 692 mmHg 80%
    21:00 +21°C° 0 mm 1 mps 692 mmHg 82%
    22:00 +20°C° 0 mm 1 mps 692 mmHg 83%
    23:00 +18°C° 0 mm 0 mps 692 mmHg 84%

    16 November, Saturday

    Time Temperature Precipitation Wind Pressure Humidity
    00:00 +18°C° 0 mm 0 mps 692 mmHg 84%
    01:00 +18°C° 0 mm 0 mps 692 mmHg 85%
    02:00 +17°C° 0 mm 0 mps 691 mmHg 86%
    03:00 +17°C° 0 mm 0 mps 691 mmHg 87%
    04:00 +17°C° 0 mm 0 mps 691 mmHg 88%
    05:00 +17°C° 0 mm 0 mps 691 mmHg 88%
    06:00 +16°C° 0 mm 0 mps 691 mmHg 88%
    07:00 +18°C° 0 mm 0 mps 692 mmHg 82%
    08:00 +22°C° 0 mm 1 mps 693 mmHg 76%
    09:00 +24°C° 0 mm 1 mps 694 mmHg 70%
    10:00 +25°C° 0 mm 1 mps 693 mmHg 65%
    11:00 +26°C° 0 mm 2 mps 693 mmHg 59%
    12:00 +28°C° 0 mm 2 mps 693 mmHg 54%
    13:00 +28°C° 0 mm 2 mps 693 mmHg 54%
    14:00 +28°C° 0 mm 2 mps 692 mmHg 53%
    15:00 +29°C° 0 mm 2 mps 692 mmHg 53%
    16:00 +27°C° 0 mm 2 mps 691 mmHg 60%
    17:00 +25°C° 0 mm 2 mps 691 mmHg 68%
    18:00 +23°C° 0 mm 2 mps 691 mmHg 76%
    19:00 +21°C° 0 mm 2 mps 691 mmHg 78%
    20:00 +22°C° 0 mm 1 mps 692 mmHg 79%
    21:00 +21°C° 0 mm 1 mps 692 mmHg 81%
    22:00 +21°C° 0 mm 1 mps 692 mmHg 83%
    23:00 +21°C° 0 mm 1 mps 692 mmHg 85%

    17 November, Sunday

    Time Temperature Precipitation Wind Pressure Humidity
    00:00 +20°C° 0 mm 1 mps 692 mmHg 87%
    01:00 +18°C° 0 mm 0 mps 691 mmHg 88%
    02:00 +18°C° 0 mm 0 mps 691 mmHg 88%
    03:00 +17°C° 0 mm 0 mps 691 mmHg 89%
    04:00 +17°C° 0 mm 0 mps 691 mmHg 89%
    05:00 +17°C° 0 mm 0 mps 691 mmHg 89%
    06:00 +17°C° 0 mm 0 mps 691 mmHg 89%
    07:00 +20°C° 0 mm 1 mps 692 mmHg 83%
    08:00 +22°C° 0 mm 1 mps 693 mmHg 77%
    09:00 +24°C° 0 mm 1 mps 694 mmHg 71%
    10:00 +25°C° 0 mm 1 mps 694 mmHg 64%
    11:00 +27°C° 0 mm 1 mps 693 mmHg 58%
    12:00 +28°C° 0 mm 2 mps 693 mmHg 51%
    13:00 +28°C° 0 mm 2 mps 693 mmHg 51%
    14:00 +29°C° 0 mm 2 mps 692 mmHg 50%
    15:00 +29°C° 0 mm 2 mps 692 mmHg 50%
    16:00 +27°C° 0 mm 2 mps 692 mmHg 59%
    17:00 +25°C° 0 mm 2 mps 692 mmHg 68%
    18:00 +23°C° 0 mm 2 mps 692 mmHg 76%
    19:00 +21°C° 0 mm 2 mps 692 mmHg 78%
    20:00 +21°C° 0 mm 2 mps 692 mmHg 80%
    21:00 +21°C° 0 mm 1 mps 692 mmHg 81%
    22:00 +21°C° 0 mm 1 mps 692 mmHg 83%
    23:00 +21°C° 0 mm 1 mps 692 mmHg 85%
    Show more